Location: Izdebno
(52.6670°N, 16.2170°E)
Time: 17:30:40
(UTC+02:00)

Transit 4A - Pass Details

Date: 26 February 2024
Orbit: 871 x 972 km, 66.8° (Epoch: 21 April)

Event Time Altitude Azimuth Distance (km) Brightness Sun altitude
Rises 08:41:10 0° 320° (NW) 3,518 10.3 14.4°
Reaches altitude 10° 08:43:44 10° 323° (NW) 2,563 9.7 14.7°
Maximum altitude 08:49:37 66° 46° (NE) 959 8.3 15.4°
Drops below altitude 10° 08:55:24 10° 128° (SE) 2,518 13.1 16.1°
Sets 08:57:53 0° 132° (SE) 3,452 12.7 16.4°
